Todos
Dickson Muni Airport (Dickson, TN) M02 Condições meteorológicas
|
Dickson, TN (M02)
Céu Limpo
Vento Ligeiro |
|
17 °C |
There is no TAF data available at M02 or any nearby airports.
Histórico recente de METAR M02
| Date | Time (CDT) | Flight Rules | Wind Dir. | Speed | Type | Height AGL (ft) | Visibility | Temp (°C) | Temp (°F) | Dew Point (°C) | Dew Point (°F) | Rel. Humid. | Pressure | Density Altitude | Remarks |
|---|---|---|---|---|---|---|---|---|---|---|---|---|---|---|---|
| 05-Mai | 08:55 | VFR | 210° | 10 kt | 10 miles | 17° | 62° | 11° | 51° | 68% | 29.88 in Hg | 1.172 ft | |||
| 05-Mai | 08:15 | VFR | 210° | 9 kt | 10 miles | 16° | 60° | 10° | 50° | 68% | 29.88 in Hg | 1.052 ft | |||
| 05-Mai | 07:55 | VFR | 200° | 11 kt | 10 miles | 16° | 60° | 10° | 50° | 68% | 29.86 in Hg | 1.072 ft | |||
| 05-Mai | 07:15 | VFR | 190° | 10 kt | 10 miles | 15° | 59° | 10° | 50° | 72% | 29.86 in Hg | 952 ft | |||
| 05-Mai | 06:55 | VFR | 190° | 9 kt | 10 miles | 15° | 59° | 10° | 50° | 72% | 29.86 in Hg | 952 ft | |||
| 05-Mai | 06:15 | VFR | 190° | 7 kt | 10 miles | 15° | 59° | 9° | 48° | 67% | 29.84 in Hg | 972 ft | |||
| 05-Mai | 05:55 | VFR | 190° | 8 kt | 10 miles | 14° | 57° | 9° | 48° | 72% | 29.84 in Hg | 852 ft | |||
| 05-Mai | 05:35 | VFR | 200° | 6 kt | 10 miles | 14° | 57° | 9° | 48° | 72% | 29.84 in Hg | 852 ft | |||
| 05-Mai | 05:15 | VFR | 200° | 6 kt | 10 miles | 15° | 59° | 9° | 48° | 67% | 29.84 in Hg | 972 ft | |||
| 05-Mai | 04:55 | VFR | 190° | 7 kt | 10 miles | 15° | 59° | 9° | 48° | 67% | 29.83 in Hg | 982 ft | |||
| 05-Mai | 04:35 | VFR | 190° | 6 kt | 10 miles | 14° | 57° | 9° | 48° | 72% | 29.83 in Hg | 862 ft | |||
| 05-Mai | 04:15 | VFR | 190° | 6 kt | 10 miles | 15° | 59° | 9° | 48° | 67% | 29.83 in Hg | 982 ft | |||
| 05-Mai | 03:55 | VFR | 190° | 6 kt | 10 miles | 14° | 57° | 9° | 48° | 72% | 29.83 in Hg | 862 ft | |||
| 05-Mai | 03:15 | VFR | 200° | 8 kt | 10 miles | 15° | 59° | 9° | 48° | 67% | 29.82 in Hg | 992 ft | |||
| 05-Mai | 02:55 | VFR | 200° | 9 kt | 10 miles | 15° | 59° | 9° | 48° | 67% | 29.82 in Hg | 992 ft | |||
| 05-Mai | 02:15 | VFR | 200° | 9 kt | 10 miles | 15° | 59° | 9° | 48° | 67% | 29.83 in Hg | 982 ft | |||
| 05-Mai | 01:55 | VFR | 200° | 8 kt | 10 miles | 16° | 60° | 9° | 48° | 63% | 29.83 in Hg | 1.102 ft | |||
| 05-Mai | 01:35 | VFR | 200° | 9 kt | 10 miles | 16° | 60° | 9° | 48° | 63% | 29.84 in Hg | 1.092 ft | |||
| 05-Mai | 01:15 | VFR | 200° | 9 kt | 10 miles | 16° | 60° | 9° | 48° | 63% | 29.85 in Hg | 1.082 ft | |||
| 05-Mai | 00:55 | VFR | 200° | 8 kt | 10 miles | 16° | 60° | 9° | 48° | 63% | 29.85 in Hg | 1.082 ft | |||
| 05-Mai | 00:15 | VFR | 200° | 8 kt | 10 miles | 17° | 62° | 9° | 48° | 59% | 29.86 in Hg | 1.192 ft | |||
| 04-Mai | 23:55 | VFR | 200° | 8 kt | 10 miles | 17° | 62° | 9° | 48° | 59% | 29.85 in Hg | 1.202 ft | |||
| 04-Mai | 23:35 | VFR | 210° | 7 kt | 10 miles | 17° | 62° | 9° | 48° | 59% | 29.85 in Hg | 1.202 ft | |||
| 04-Mai | 23:15 | VFR | 200° | 8 kt | 10 miles | 18° | 64° | 9° | 48° | 56% | 29.84 in Hg | 1.332 ft |
Entrar
| Seu navegador não suporta. atualize seu navegador |
